Flag for U.S.A. Weather past 2 weeks in Hampton, Virginia, U.S.A.

Now
80 °F

Broken clouds.


Feels Like: 84 °F
Forecast: 75 / 82 °F
Wind: 9 mph from Northeast

Location: Langley Air Force Base

Current Time: Jul 5, 2015 at 1:39:45 PM

Latest Report: Jul 5, 2015 at 12:58 PM


Visibility: 9 mi

Pressure: 30.14 "Hg

Humidity: 78%

Dew point: 73 °F

Location of HamptonLocation

Historic Weather in Hampton — Graph

°F

Hampton temperature yesterday

Maximum temperature yesterday: 85 °F (at 5:58 PM)
Minimum temperature yesterday: 73 °F (at 6:58 AM)
Average temperature yesterday: 78 °F

Past Weeks' High & Low Weather Summary

 TemperatureHumidityPressure
High97 °F (Jun 23, 4:58 PM)100% (Jun 24, 2:03 AM)30.15 "Hg (Jun 24, 2:03 AM)
Low61 °F (Jun 29, 5:58 AM)44% (Jun 29, 9:58 AM)29.68 "Hg (Jun 28, 2:58 AM)
Average78 °F76%29.93 "Hg
* Reported Jun 20 11:58 AM — Jul 5 11:58 AM, Hampton, Weather by CustomWeather, © 2015

Note: Actual official high and low records may vary slightly from our data, if they occured in-between our weather recording intervals... More about our weather records

Advertising

Hampton weather history for previous 24 hours

 ConditionsComfort  
Time TempWeatherWind HumidityBarometerVisibility
11:58 AM
Sun, Jul 5
82 °FPassing clouds.9 mph76%30.15 "Hg9 mi
10:58 AM81 °FSunny.8 mph75%30.14 "Hg9 mi
9:58 AM79 °FScattered clouds.6 mph81%30.13 "Hg10 mi
8:58 AM78 °FScattered clouds.5 mph83%30.13 "Hg9 mi
7:58 AM75 °FSunny.2 mph91%30.11 "Hg10 mi
6:58 AM72 °FScattered clouds.2 mph97%30.10 "Hg8 mi
5:58 AM71 °FFog.2 mph97%30.07 "Hg3 mi
4:58 AM72 °FPassing clouds.3 mph97%30.06 "Hg9 mi
3:58 AM72 °FPassing clouds.2 mph96%30.04 "Hg10 mi
2:58 AM72 °FPassing clouds.5 mph95%30.04 "Hg9 mi
2:02 AM73 °FPassing clouds.6 mph94%30.01 "Hg8 mi
1:58 AM73 °FLight rain. Fog.7 mph94%30.03 "Hg4 mi
12:58 AM73 °FPassing clouds.No wind92%30.03 "Hg10 mi
11:58 PM
Sat, Jul 4
74 °FPartly cloudy.2 mph88%30.03 "Hg10 mi
10:58 PM74 °FOvercast.2 mph83%30.02 "Hg10 mi
9:58 PM73 °FMostly cloudy.2 mph89%29.98 "Hg10 mi
8:58 PM79 °FThunderstorms. Broken clouds.21 mph81%29.95 "Hg10 mi
7:58 PM81 °FSunny.7 mph75%29.94 "Hg10 mi
6:58 PM85 °FSunny.7 mph65%29.92 "Hg10 mi
5:58 PM85 °FPartly sunny.9 mph65%29.91 "Hg10 mi
4:58 PM84 °FPassing clouds.10 mph66%29.91 "Hg10 mi
3:58 PM84 °FScattered clouds.5 mph74%29.91 "Hg9 mi
2:58 PM83 °FBroken clouds.9 mph70%29.92 "Hg10 mi
1:58 PM83 °FScattered clouds.14 mph68%29.93 "Hg9 mi
Weather by CustomWeather, © 2015

See weather overviewHow to use our weather pages